Time,TemperatureF,DewpointF,PressureIn,WindDirection,WindDirectionDegrees,WindSpeedMPH,WindSpeedGustMPH,Humidity,HourlyPrecipIn,Conditions,Clouds,dailyrainin,SoftwareType,DateUTC
2015-03-04 00:00:00,17.9,13.9,30.26,West,265,2.0,2.0,84,0.00,,---,0.00,VWS V15.00,2015-03-04 08:00:00,
2015-03-04 00:05:00,17.8,13.8,30.25,West,265,2.0,2.0,84,0.00,,---,0.00,VWS V15.00,2015-03-04 08:05:00,
2015-03-04 00:10:00,17.7,13.7,30.26,West,265,2.0,2.0,84,0.00,,---,0.00,VWS V15.00,2015-03-04 08:10:00,
2015-03-04 00:15:00,17.6,13.6,30.26,West,265,1.0,1.0,84,0.00,,---,0.00,VWS V15.00,2015-03-04 08:15:00,
2015-03-04 00:20:00,17.5,13.5,30.26,West,265,1.0,2.0,84,0.00,,---,0.00,VWS V15.00,2015-03-04 08:20:00,
2015-03-04 00:25:00,17.3,13.6,30.26,West,265,1.0,1.0,85,0.00,,---,0.00,VWS V15.00,2015-03-04 08:25:00,
2015-03-04 00:30:00,17.3,13.3,30.26,West,265,2.0,2.0,84,0.00,,---,0.00,VWS V15.00,2015-03-04 08:30:00,
2015-03-04 00:35:00,17.1,13.4,30.26,West,265,1.0,2.0,85,0.00,,---,0.00,VWS V15.00,2015-03-04 08:35:00,
2015-03-04 00:40:00,17.0,13.3,30.26,West,265,1.0,1.0,85,0.00,,---,0.00,VWS V15.00,2015-03-04 08:40:00,
2015-03-04 00:45:00,16.9,13.2,30.26,West,265,1.0,1.0,85,0.00,,---,0.00,VWS V15.00,2015-03-04 08:45:00,
2015-03-04 00:50:00,16.8,13.1,30.27,West,265,1.0,2.0,85,0.00,,---,0.00,VWS V15.00,2015-03-04 08:50:00,
2015-03-04 00:55:00,16.6,13.1,30.27,West,265,0.0,2.0,86,0.00,,---,0.00,VWS V15.00,2015-03-04 08:55:00,
2015-03-04 01:00:00,16.4,12.9,30.27,West,265,1.0,1.0,86,0.00,,---,0.00,VWS V15.00,2015-03-04 09:00:00,
2015-03-04 01:05:00,16.3,12.9,30.27,West,265,1.0,1.0,86,0.00,,---,0.00,VWS V15.00,2015-03-04 09:05:00,
2015-03-04 01:10:00,16.3,12.9,30.27,West,265,2.0,2.0,86,0.00,,---,0.00,VWS V15.00,2015-03-04 09:10:00,
2015-03-04 01:15:00,16.2,13.0,30.27,West,265,2.0,2.0,87,0.00,,---,0.00,VWS V15.00,2015-03-04 09:15:00,
2015-03-04 01:20:00,16.2,13.0,30.28,West,265,2.0,2.0,87,0.00,,---,0.00,VWS V15.00,2015-03-04 09:20:00,
2015-03-04 01:25:00,16.1,12.9,30.28,West,265,2.0,2.0,87,0.00,,---,0.00,VWS V15.00,2015-03-04 09:25:00,
2015-03-04 01:30:00,16.1,12.9,30.28,West,265,1.0,1.0,87,0.00,,---,0.00,VWS V15.00,2015-03-04 09:30:00,
2015-03-04 01:35:00,16.1,12.9,30.28,West,265,1.0,1.0,87,0.00,,---,0.00,VWS V15.00,2015-03-04 09:35:00,
2015-03-04 01:40:00,16.0,12.8,30.29,West,265,2.0,2.0,87,0.00,,---,0.00,VWS V15.00,2015-03-04 09:40:00,
2015-03-04 01:45:00,15.9,12.7,30.28,West,265,1.0,2.0,87,0.00,,---,0.00,VWS V15.00,2015-03-04 09:45:00,
2015-03-04 01:50:00,15.8,12.6,30.29,West,265,2.0,2.0,87,0.00,,---,0.00,VWS V15.00,2015-03-04 09:50:00,
2015-03-04 01:55:00,15.8,12.6,30.29,West,265,2.0,2.0,87,0.00,,---,0.00,VWS V15.00,2015-03-04 09:55:00,
2015-03-04 02:00:00,15.7,12.5,30.29,West,265,1.0,2.0,87,0.00,,---,0.00,VWS V15.00,2015-03-04 10:00:00,
2015-03-04 02:05:00,15.6,12.4,30.28,West,265,1.0,2.0,87,0.00,,---,0.00,VWS V15.00,2015-03-04 10:05:00,
2015-03-04 02:10:00,15.6,12.4,30.28,West,265,1.0,2.0,87,0.00,,---,0.00,VWS V15.00,2015-03-04 10:10:00,
2015-03-04 02:15:00,15.6,12.4,30.28,West,265,1.0,2.0,87,0.00,,---,0.00,VWS V15.00,2015-03-04 10:15:00,
2015-03-04 02:20:00,15.5,12.3,30.29,West,265,1.0,1.0,87,0.00,,---,0.00,VWS V15.00,2015-03-04 10:20:00,
2015-03-04 02:25:00,15.4,12.2,30.29,West,265,1.0,2.0,87,0.00,,---,0.00,VWS V15.00,2015-03-04 10:25:00,
2015-03-04 02:30:00,15.3,12.1,30.29,West,265,1.0,2.0,87,0.00,,---,0.00,VWS V15.00,2015-03-04 10:30:00,
2015-03-04 02:35:00,15.1,12.2,30.29,West,265,1.0,2.0,88,0.00,,---,0.00,VWS V15.00,2015-03-04 10:35:00,
2015-03-04 02:40:00,15.0,12.1,30.29,West,265,1.0,2.0,88,0.00,,---,0.00,VWS V15.00,2015-03-04 10:40:00,
2015-03-04 02:45:00,14.9,12.0,30.28,West,265,2.0,2.0,88,0.00,,---,0.00,VWS V15.00,2015-03-04 10:45:00,
2015-03-04 02:50:00,14.8,11.9,30.29,West,265,1.0,1.0,88,0.00,,---,0.00,VWS V15.00,2015-03-04 10:50:00,
2015-03-04 02:55:00,14.8,12.1,30.28,West,265,1.0,1.0,89,0.00,,---,0.00,VWS V15.00,2015-03-04 10:55:00,
2015-03-04 03:00:00,14.7,11.8,30.28,West,265,2.0,2.0,88,0.00,,---,0.00,VWS V15.00,2015-03-04 11:00:00,
2015-03-04 03:05:00,14.6,11.9,30.28,West,265,0.0,1.0,89,0.00,,---,0.00,VWS V15.00,2015-03-04 11:05:00,
2015-03-04 03:10:00,14.7,12.1,30.28,West,265,1.0,1.0,89,0.00,,---,0.00,VWS V15.00,2015-03-04 11:10:00,
2015-03-04 03:15:00,14.6,11.9,30.28,West,265,1.0,2.0,89,0.00,,---,0.00,VWS V15.00,2015-03-04 11:15:00,
2015-03-04 03:20:00,14.5,11.9,30.28,West,265,1.0,2.0,89,0.00,,---,0.00,VWS V15.00,2015-03-04 11:20:00,
2015-03-04 03:25:00,14.4,11.5,30.28,West,265,1.0,1.0,88,0.00,,---,0.00,VWS V15.00,2015-03-04 11:25:00,
2015-03-04 03:30:00,14.4,11.8,30.28,West,265,1.0,1.0,89,0.00,,---,0.00,VWS V15.00,2015-03-04 11:30:00,
2015-03-04 03:35:00,14.4,11.8,30.28,West,265,1.0,2.0,89,0.00,,---,0.00,VWS V15.00,2015-03-04 11:35:00,
2015-03-04 03:40:00,14.3,11.7,30.28,West,265,1.0,2.0,89,0.00,,---,0.00,VWS V15.00,2015-03-04 11:40:00,
2015-03-04 03:45:00,14.2,11.6,30.29,West,265,1.0,1.0,89,0.00,,---,0.00,VWS V15.00,2015-03-04 11:45:00,
2015-03-04 03:50:00,14.1,11.5,30.28,West,265,1.0,1.0,89,0.00,,---,0.00,VWS V15.00,2015-03-04 11:50:00,
2015-03-04 03:55:00,14.0,11.4,30.28,West,265,1.0,1.0,89,0.00,,---,0.00,VWS V15.00,2015-03-04 11:55:00,
2015-03-04 04:00:00,14.0,11.4,30.29,West,265,1.0,1.0,89,0.00,,---,0.00,VWS V15.00,2015-03-04 12:00:00,
2015-03-04 04:05:00,13.9,11.3,30.28,West,265,2.0,2.0,89,0.00,,---,0.00,VWS V15.00,2015-03-04 12:05:00,
2015-03-04 04:10:00,13.8,11.2,30.28,West,265,1.0,2.0,89,0.00,,---,0.00,VWS V15.00,2015-03-04 12:10:00,
2015-03-04 04:15:00,13.8,11.2,30.28,West,265,1.0,1.0,89,0.00,,---,0.00,VWS V15.00,2015-03-04 12:15:00,
2015-03-04 04:20:00,13.8,11.2,30.28,West,265,1.0,1.0,89,0.00,,---,0.00,VWS V15.00,2015-03-04 12:20:00,
2015-03-04 04:25:00,13.9,11.5,30.28,West,265,1.0,1.0,90,0.00,,---,0.00,VWS V15.00,2015-03-04 12:25:00,
2015-03-04 04:30:00,13.9,11.5,30.29,West,265,0.0,1.0,90,0.00,,---,0.00,VWS V15.00,2015-03-04 12:30:00,
2015-03-04 04:35:00,13.8,11.4,30.29,West,265,0.0,2.0,90,0.00,,---,0.00,VWS V15.00,2015-03-04 12:35:00,
2015-03-04 04:40:00,13.8,11.4,30.29,West,265,2.0,2.0,90,0.00,,---,0.00,VWS V15.00,2015-03-04 12:40:00,
2015-03-04 04:45:00,13.8,11.4,30.28,West,265,0.0,1.0,90,0.00,,---,0.00,VWS V15.00,2015-03-04 12:45:00,
2015-03-04 04:50:00,13.9,11.5,30.28,West,265,0.0,1.0,90,0.00,,---,0.00,VWS V15.00,2015-03-04 12:50:00,
2015-03-04 04:55:00,14.2,11.8,30.28,West,265,0.0,0.0,90,0.00,,---,0.00,VWS V15.00,2015-03-04 12:55:00,
2015-03-04 05:00:00,14.4,12.0,30.29,West,265,1.0,1.0,90,0.00,,---,0.00,VWS V15.00,2015-03-04 13:00:00,
2015-03-04 05:05:00,14.7,12.3,30.29,West,265,1.0,1.0,90,0.00,,---,0.00,VWS V15.00,2015-03-04 13:05:00,
2015-03-04 05:10:00,14.9,12.5,30.29,West,265,0.0,2.0,90,0.00,,---,0.00,VWS V15.00,2015-03-04 13:10:00,
2015-03-04 05:15:00,15.1,12.4,30.29,West,264,0.0,1.0,89,0.00,,---,0.00,VWS V15.00,2015-03-04 13:15:00,
2015-03-04 05:20:00,15.3,12.6,30.29,WSW,255,1.0,1.0,89,0.00,,---,0.00,VWS V15.00,2015-03-04 13:20:00,
2015-03-04 05:25:00,15.4,12.7,30.29,WNW,285,0.0,1.0,89,0.00,,---,0.00,VWS V15.00,2015-03-04 13:25:00,
2015-03-04 05:30:00,15.8,13.1,30.29,WSW,244,2.0,3.0,89,0.00,,---,0.00,VWS V15.00,2015-03-04 13:30:00,
2015-03-04 05:35:00,16.2,13.3,30.29,SSE,159,2.0,2.0,88,0.00,,---,0.00,VWS V15.00,2015-03-04 13:35:00,
2015-03-04 05:40:00,16.5,13.6,30.29,SSE,162,1.0,2.0,88,0.00,,---,0.00,VWS V15.00,2015-03-04 13:40:00,
2015-03-04 05:45:00,17.2,14.0,30.29,South,186,3.0,3.0,87,0.00,,---,0.00,VWS V15.00,2015-03-04 13:45:00,
2015-03-04 05:50:00,17.8,14.3,30.29,ESE,119,1.0,2.0,86,0.00,,---,0.00,VWS V15.00,2015-03-04 13:50:00,
2015-03-04 05:55:00,18.0,14.3,30.29,SE,131,1.0,2.0,85,0.00,,---,0.00,VWS V15.00,2015-03-04 13:55:00,
2015-03-04 06:00:00,18.4,14.6,30.29,SE,146,2.0,2.0,85,0.00,,---,0.00,VWS V15.00,2015-03-04 14:00:00,
2015-03-04 06:05:00,20.0,15.7,30.29,South,189,4.0,5.0,83,0.00,,---,0.00,VWS V15.00,2015-03-04 14:05:00,
2015-03-04 06:10:00,21.9,16.1,30.29,SSW,192,5.0,6.0,78,0.00,,---,0.00,VWS V15.00,2015-03-04 14:10:00,
2015-03-04 06:15:00,23.0,16.3,30.29,South,188,3.0,4.0,75,0.00,,---,0.00,VWS V15.00,2015-03-04 14:15:00,
2015-03-04 06:20:00,23.5,16.1,30.29,SSW,193,3.0,3.0,73,0.00,,---,0.00,VWS V15.00,2015-03-04 14:20:00,
2015-03-04 06:25:00,23.6,16.2,30.29,SSW,193,2.0,3.0,73,0.00,,---,0.00,VWS V15.00,2015-03-04 14:25:00,
2015-03-04 06:30:00,23.5,15.8,30.29,SSW,193,2.0,2.0,72,0.00,,---,0.00,VWS V15.00,2015-03-04 14:30:00,
2015-03-04 06:35:00,23.2,15.8,30.29,SSW,193,0.0,1.0,73,0.00,,---,0.00,VWS V15.00,2015-03-04 14:35:00,
2015-03-04 06:40:00,22.9,16.2,30.30,SSW,193,1.0,2.0,75,0.00,,---,0.00,VWS V15.00,2015-03-04 14:40:00,
2015-03-04 06:45:00,22.0,15.0,30.30,SSW,193,1.0,2.0,74,0.00,,---,0.00,VWS V15.00,2015-03-04 14:45:00,
2015-03-04 06:50:00,21.2,15.1,30.30,SSW,193,1.0,1.0,77,0.00,,---,0.00,VWS V15.00,2015-03-04 14:50:00,
2015-03-04 06:55:00,21.1,15.3,30.30,SSW,192,2.0,2.0,78,0.00,,---,0.00,VWS V15.00,2015-03-04 14:55:00,
2015-03-04 07:00:00,21.2,15.1,30.30,SSW,192,1.0,1.0,77,0.00,,---,0.00,VWS V15.00,2015-03-04 15:00:00,
2015-03-04 07:05:00,21.2,15.1,30.31,SSW,192,1.0,2.0,77,0.00,,---,0.00,VWS V15.00,2015-03-04 15:05:00,
2015-03-04 07:10:00,21.6,15.5,30.31,SSW,192,4.0,4.0,77,0.00,,---,0.00,VWS V15.00,2015-03-04 15:10:00,
2015-03-04 07:15:00,22.2,16.1,30.31,South,184,2.0,3.0,77,0.00,,---,0.00,VWS V15.00,2015-03-04 15:15:00,
2015-03-04 07:20:00,23.1,16.4,30.31,South,191,3.0,3.0,75,0.00,,---,0.00,VWS V15.00,2015-03-04 15:20:00,
2015-03-04 07:25:00,23.7,16.3,30.31,South,176,2.0,3.0,73,0.00,,---,0.00,VWS V15.00,2015-03-04 15:25:00,
2015-03-04 07:30:00,24.2,16.5,30.31,South,180,3.0,3.0,72,0.00,,---,0.00,VWS V15.00,2015-03-04 15:30:00,
2015-03-04 07:35:00,24.8,16.8,30.32,SSW,198,4.0,4.0,71,0.00,,---,0.00,VWS V15.00,2015-03-04 15:35:00,
2015-03-04 07:40:00,25.3,16.9,30.32,South,190,5.0,5.0,70,0.00,,---,0.00,VWS V15.00,2015-03-04 15:40:00,
2015-03-04 07:45:00,25.8,17.0,30.32,South,189,4.0,4.0,69,0.00,,---,0.00,VWS V15.00,2015-03-04 15:45:00,
2015-03-04 07:50:00,26.2,17.1,30.32,South,191,2.0,2.0,68,0.00,,---,0.00,VWS V15.00,2015-03-04 15:50:00,
2015-03-04 07:55:00,26.5,17.0,30.32,South,188,4.0,4.0,67,0.00,,---,0.00,VWS V15.00,2015-03-04 15:55:00,
2015-03-04 08:00:00,26.8,17.3,30.32,South,170,2.0,2.0,67,0.00,,---,0.00,VWS V15.00,2015-03-04 16:00:00,
2015-03-04 08:05:00,27.2,17.4,30.33,SSE,167,1.0,3.0,66,0.00,,---,0.00,VWS V15.00,2015-03-04 16:05:00,
2015-03-04 08:10:00,27.8,17.2,30.33,South,180,3.0,3.0,64,0.00,,---,0.00,VWS V15.00,2015-03-04 16:10:00,
2015-03-04 08:15:00,28.5,17.9,30.33,SSE,167,5.0,5.0,64,0.00,,---,0.00,VWS V15.00,2015-03-04 16:15:00,
2015-03-04 08:20:00,29.6,17.4,30.33,SSW,204,2.0,4.0,60,0.00,,---,0.00,VWS V15.00,2015-03-04 16:20:00,
2015-03-04 08:25:00,30.5,17.5,30.33,SSE,160,4.0,5.0,58,0.00,,---,0.00,VWS V15.00,2015-03-04 16:25:00,
2015-03-04 08:30:00,31.3,17.4,30.33,South,177,6.0,7.0,56,0.00,,---,0.00,VWS V15.00,2015-03-04 16:30:00,
2015-03-04 08:35:00,32.0,16.8,30.33,SSW,210,6.0,6.0,53,0.00,,---,0.00,VWS V15.00,2015-03-04 16:35:00,
2015-03-04 08:40:00,32.6,16.0,30.33,SSW,194,2.0,2.0,50,0.00,,---,0.00,VWS V15.00,2015-03-04 16:40:00,
2015-03-04 08:45:00,33.2,16.6,30.34,South,191,4.0,4.0,50,0.00,,---,0.00,VWS V15.00,2015-03-04 16:45:00,
2015-03-04 08:50:00,33.5,15.9,30.34,SSW,194,2.0,5.0,48,0.00,,---,0.00,VWS V15.00,2015-03-04 16:50:00,
2015-03-04 08:55:00,33.9,15.3,30.34,South,186,8.0,8.0,46,0.00,,---,0.00,VWS V15.00,2015-03-04 16:55:00,
2015-03-04 09:00:00,34.5,16.9,30.35,South,188,5.0,6.0,48,0.00,,---,0.00,VWS V15.00,2015-03-04 17:00:00,
2015-03-04 09:05:00,35.0,14.8,30.35,South,186,6.0,10.0,43,0.00,,---,0.00,VWS V15.00,2015-03-04 17:05:00,
2015-03-04 09:10:00,34.7,14.0,30.35,South,189,8.0,11.0,42,0.00,,---,0.00,VWS V15.00,2015-03-04 17:10:00,
2015-03-04 09:15:00,34.8,14.6,30.35,SSW,203,6.0,7.0,43,0.00,,---,0.00,VWS V15.00,2015-03-04 17:15:00,
2015-03-04 09:20:00,35.5,15.2,30.35,SSW,209,3.0,5.0,43,0.00,,---,0.00,VWS V15.00,2015-03-04 17:20:00,
2015-03-04 09:25:00,36.2,15.9,30.35,SW,236,2.0,3.0,43,0.00,,---,0.00,VWS V15.00,2015-03-04 17:25:00,
2015-03-04 09:30:00,36.7,15.8,30.36,South,177,3.0,4.0,42,0.00,,---,0.00,VWS V15.00,2015-03-04 17:30:00,
2015-03-04 09:35:00,37.1,16.1,30.36,SSW,207,5.0,7.0,42,0.00,,---,0.00,VWS V15.00,2015-03-04 17:35:00,
2015-03-04 09:40:00,36.8,15.9,30.35,SSW,199,5.0,9.0,42,0.00,,---,0.00,VWS V15.00,2015-03-04 17:40:00,
2015-03-04 09:45:00,36.9,15.4,30.36,South,173,5.0,8.0,41,0.00,,---,0.00,VWS V15.00,2015-03-04 17:45:00,
2015-03-04 09:50:00,37.3,16.3,30.36,South,186,4.0,4.0,42,0.00,,---,0.00,VWS V15.00,2015-03-04 17:50:00,
2015-03-04 09:55:00,37.4,15.3,30.36,SSW,203,6.0,7.0,40,0.00,,---,0.00,VWS V15.00,2015-03-04 17:55:00,
2015-03-04 10:00:00,37.7,16.7,30.36,SSE,164,2.0,7.0,42,0.00,,---,0.00,VWS V15.00,2015-03-04 18:00:00,
2015-03-04 10:05:00,38.3,16.1,30.36,WNW,285,1.0,2.0,40,0.00,,---,0.00,VWS V15.00,2015-03-04 18:05:00,
2015-03-04 10:10:00,38.8,16.0,30.35,SSW,211,5.0,5.0,39,0.00,,---,0.00,VWS V15.00,2015-03-04 18:10:00,
2015-03-04 10:15:00,39.2,16.3,30.35,SSW,195,4.0,5.0,39,0.00,,---,0.00,VWS V15.00,2015-03-04 18:15:00,
2015-03-04 10:20:00,39.5,16.0,30.35,South,170,4.0,5.0,38,0.00,,---,0.00,VWS V15.00,2015-03-04 18:20:00,
2015-03-04 10:25:00,40.1,16.5,30.35,SW,217,2.0,2.0,38,0.00,,---,0.00,VWS V15.00,2015-03-04 18:25:00,
2015-03-04 10:30:00,41.1,17.4,30.35,NNW,332,1.0,3.0,38,0.00,,---,0.00,VWS V15.00,2015-03-04 18:30:00,
2015-03-04 10:35:00,42.0,17.0,30.35,South,181,2.0,5.0,36,0.00,,---,0.00,VWS V15.00,2015-03-04 18:35:00,
2015-03-04 10:40:00,42.5,17.4,30.34,SSW,194,0.0,2.0,36,0.00,,---,0.00,VWS V15.00,2015-03-04 18:40:00,
2015-03-04 10:45:00,43.3,18.2,30.34,NW,320,3.0,3.0,36,0.00,,---,0.00,VWS V15.00,2015-03-04 18:45:00,
2015-03-04 10:50:00,43.8,18.6,30.34,NW,319,4.0,4.0,36,0.00,,---,0.00,VWS V15.00,2015-03-04 18:50:00,
2015-03-04 10:55:00,44.3,17.0,30.34,SSW,202,3.0,4.0,33,0.00,,---,0.00,VWS V15.00,2015-03-04 18:55:00,
2015-03-04 11:00:00,44.2,16.2,30.34,South,182,1.0,3.0,32,0.00,,---,0.00,VWS V15.00,2015-03-04 19:00:00,
2015-03-04 11:05:00,44.6,18.0,30.34,WNW,302,1.0,2.0,34,0.00,,---,0.00,VWS V15.00,2015-03-04 19:05:00,
2015-03-04 11:10:00,45.1,18.4,30.34,SSW,205,2.0,4.0,34,0.00,,---,0.00,VWS V15.00,2015-03-04 19:10:00,
2015-03-04 11:15:00,45.6,18.2,30.34,NW,317,2.0,2.0,33,0.00,,---,0.00,VWS V15.00,2015-03-04 19:15:00,
2015-03-04 11:20:00,46.1,16.4,30.34,SSW,195,5.0,5.0,30,0.00,,---,0.00,VWS V15.00,2015-03-04 19:20:00,
2015-03-04 11:25:00,45.5,16.6,30.34,SE,125,4.0,5.0,31,0.00,,---,0.00,VWS V15.00,2015-03-04 19:25:00,
2015-03-04 11:30:00,46.1,18.6,30.34,SE,125,0.0,1.0,33,0.00,,---,0.00,VWS V15.00,2015-03-04 19:30:00,
2015-03-04 11:35:00,47.5,19.1,30.34,South,182,3.0,5.0,32,0.00,,---,0.00,VWS V15.00,2015-03-04 19:35:00,
2015-03-04 11:40:00,47.4,19.0,30.33,South,184,1.0,2.0,32,0.00,,---,0.00,VWS V15.00,2015-03-04 19:40:00,
2015-03-04 11:45:00,47.5,18.4,30.33,SE,126,1.0,4.0,31,0.00,,---,0.00,VWS V15.00,2015-03-04 19:45:00,
2015-03-04 11:50:00,47.4,17.5,30.33,SE,144,2.0,2.0,30,0.00,,---,0.00,VWS V15.00,2015-03-04 19:50:00,
2015-03-04 11:55:00,48.2,17.5,30.33,NNW,339,3.0,3.0,29,0.00,,---,0.00,VWS V15.00,2015-03-04 19:55:00,
2015-03-04 12:00:00,48.8,18.0,30.33,South,190,3.0,4.0,29,0.00,,---,0.00,VWS V15.00,2015-03-04 20:00:00,
2015-03-04 12:05:00,48.4,17.6,30.33,South,180,2.0,3.0,29,0.00,,---,0.00,VWS V15.00,2015-03-04 20:05:00,
2015-03-04 12:10:00,48.7,17.9,30.33,NNW,340,2.0,4.0,29,0.00,,---,0.00,VWS V15.00,2015-03-04 20:10:00,
2015-03-04 12:15:00,50.0,18.2,30.33,NW,323,2.0,2.0,28,0.00,,---,0.00,VWS V15.00,2015-03-04 20:15:00,
2015-03-04 12:20:00,49.4,16.8,30.33,WNW,300,1.0,3.0,27,0.00,,---,0.00,VWS V15.00,2015-03-04 20:20:00,
2015-03-04 12:25:00,49.9,17.3,30.32,NE,37,1.0,2.0,27,0.00,,---,0.00,VWS V15.00,2015-03-04 20:25:00,
2015-03-04 12:30:00,51.7,19.7,30.32,NNW,340,1.0,3.0,28,0.00,,---,0.00,VWS V15.00,2015-03-04 20:30:00,
2015-03-04 12:35:00,52.7,19.7,30.32,NNW,342,1.0,2.0,27,0.00,,---,0.00,VWS V15.00,2015-03-04 20:35:00,
2015-03-04 12:41:00,53.1,20.9,30.32,NNW,338,2.0,2.0,28,0.00,,---,0.00,VWS V15.00,2015-03-04 20:41:00,
2015-03-04 12:45:00,53.9,20.7,30.32,NNE,13,1.0,2.0,27,0.00,,---,0.00,VWS V15.00,2015-03-04 20:45:00,
2015-03-04 12:51:00,55.0,20.8,30.31,NNE,31,3.0,3.0,26,0.00,,---,0.00,VWS V15.00,2015-03-04 20:51:00,
2015-03-04 12:56:00,55.8,20.5,30.32,North,10,1.0,3.0,25,0.00,,---,0.00,VWS V15.00,2015-03-04 20:56:00,
2015-03-04 13:01:00,56.0,19.7,30.31,NNE,33,3.0,3.0,24,0.00,,---,0.00,VWS V15.00,2015-03-04 21:01:00,
2015-03-04 13:06:00,54.8,19.7,30.31,NW,318,4.0,5.0,25,0.00,,---,0.00,VWS V15.00,2015-03-04 21:06:00,
2015-03-04 13:11:00,54.4,19.3,30.31,North,5,1.0,2.0,25,0.00,,---,0.00,VWS V15.00,2015-03-04 21:11:00,
2015-03-04 13:16:00,54.5,19.4,30.31,NNE,19,3.0,3.0,25,0.00,,---,0.00,VWS V15.00,2015-03-04 21:16:00,
2015-03-04 13:21:00,54.6,18.5,30.31,North,9,3.0,5.0,24,0.00,,---,0.00,VWS V15.00,2015-03-04 21:21:00,
2015-03-04 13:26:00,54.0,19.0,30.31,NNW,341,1.0,2.0,25,0.00,,---,0.00,VWS V15.00,2015-03-04 21:26:00,
2015-03-04 13:31:00,53.9,19.8,30.31,NNE,19,2.0,3.0,26,0.00,,---,0.00,VWS V15.00,2015-03-04 21:31:00,
2015-03-04 13:36:00,54.5,17.5,30.31,NNW,348,2.0,4.0,23,0.00,,---,0.00,VWS V15.00,2015-03-04 21:36:00,
2015-03-04 13:41:00,54.4,18.4,30.30,ESE,106,1.0,2.0,24,0.00,,---,0.00,VWS V15.00,2015-03-04 21:41:00,
2015-03-04 13:46:00,54.3,17.3,30.31,NNW,333,1.0,2.0,23,0.00,,---,0.00,VWS V15.00,2015-03-04 21:46:00,
2015-03-04 13:51:00,53.6,17.7,30.30,NNW,335,1.0,4.0,24,0.00,,---,0.00,VWS V15.00,2015-03-04 21:51:00,
2015-03-04 13:56:00,53.2,17.4,30.30,North,5,3.0,3.0,24,0.00,,---,0.00,VWS V15.00,2015-03-04 21:56:00,
2015-03-04 14:01:00,52.6,18.7,30.30,SSE,164,4.0,4.0,26,0.00,,---,0.00,VWS V15.00,2015-03-04 22:01:00,
2015-03-04 14:06:00,52.4,17.6,30.30,NNE,30,2.0,3.0,25,0.00,,---,0.00,VWS V15.00,2015-03-04 22:06:00,
2015-03-04 14:11:00,52.4,14.7,30.31,NE,50,3.0,3.0,22,0.00,,---,0.00,VWS V15.00,2015-03-04 22:11:00,
2015-03-04 14:16:00,52.7,16.9,30.31,NNE,28,1.0,4.0,24,0.00,,---,0.00,VWS V15.00,2015-03-04 22:16:00,
2015-03-04 14:21:00,52.9,16.1,30.31,SSW,196,2.0,2.0,23,0.00,,---,0.00,VWS V15.00,2015-03-04 22:21:00,
2015-03-04 14:26:00,52.8,14.0,30.30,SSE,153,0.0,2.0,21,0.00,,---,0.00,VWS V15.00,2015-03-04 22:26:00,
2015-03-04 14:31:00,52.8,17.0,30.30,SE,142,2.0,2.0,24,0.00,,---,0.00,VWS V15.00,2015-03-04 22:31:00,
2015-03-04 14:36:00,53.1,15.3,30.30,SSW,193,1.0,2.0,22,0.00,,---,0.00,VWS V15.00,2015-03-04 22:36:00,
2015-03-04 14:41:00,53.0,15.2,30.30,ENE,69,3.0,3.0,22,0.00,,---,0.00,VWS V15.00,2015-03-04 22:41:00,
2015-03-04 14:46:00,52.8,14.0,30.30,SE,138,1.0,2.0,21,0.00,,---,0.00,VWS V15.00,2015-03-04 22:46:00,
2015-03-04 14:51:00,52.6,12.7,30.30,NE,49,3.0,3.0,20,0.00,,---,0.00,VWS V15.00,2015-03-04 22:51:00,
2015-03-04 14:56:00,52.4,12.5,30.30,SE,124,1.0,2.0,20,0.00,,---,0.00,VWS V15.00,2015-03-04 22:56:00,
2015-03-04 15:01:00,52.3,14.6,30.30,NNE,23,4.0,4.0,22,0.00,,---,0.00,VWS V15.00,2015-03-04 23:01:00,
2015-03-04 15:06:00,51.9,13.2,30.30,NW,326,1.0,3.0,21,0.00,,---,0.00,VWS V15.00,2015-03-04 23:06:00,
2015-03-04 15:11:00,51.5,13.9,30.30,NW,313,1.0,1.0,22,0.00,,---,0.00,VWS V15.00,2015-03-04 23:11:00,
2015-03-04 15:16:00,51.4,12.8,30.30,NW,320,0.0,1.0,21,0.00,,---,0.00,VWS V15.00,2015-03-04 23:16:00,
2015-03-04 15:21:00,51.5,14.9,30.30,SSE,153,1.0,1.0,23,0.00,,---,0.00,VWS V15.00,2015-03-04 23:21:00,
2015-03-04 15:26:00,51.7,14.1,30.30,ESE,121,1.0,2.0,22,0.00,,---,0.00,VWS V15.00,2015-03-04 23:26:00,
2015-03-04 15:31:00,51.9,14.3,30.30,South,177,2.0,3.0,22,0.00,,---,0.00,VWS V15.00,2015-03-04 23:31:00,
2015-03-04 15:36:00,51.9,13.2,30.29,NW,319,2.0,4.0,21,0.00,,---,0.00,VWS V15.00,2015-03-04 23:36:00,
2015-03-04 15:41:00,51.8,13.1,30.29,NNE,20,3.0,3.0,21,0.00,,---,0.00,VWS V15.00,2015-03-04 23:41:00,
2015-03-04 15:46:00,51.6,13.0,30.29,NNW,340,2.0,3.0,21,0.00,,---,0.00,VWS V15.00,2015-03-04 23:46:00,
2015-03-04 15:51:00,51.5,13.9,30.29,NW,308,5.0,5.0,22,0.00,,---,0.00,VWS V15.00,2015-03-04 23:51:00,
2015-03-04 15:56:00,51.5,12.9,30.29,WNW,301,1.0,2.0,21,0.00,,---,0.00,VWS V15.00,2015-03-04 23:56:00,
2015-03-04 16:01:00,51.5,16.9,30.29,SSW,201,1.0,2.0,25,0.00,,---,0.00,VWS V15.00,2015-03-05 00:01:00,
2015-03-04 16:06:00,51.4,13.9,30.29,NNE,33,1.0,2.0,22,0.00,,---,0.00,VWS V15.00,2015-03-05 00:06:00,
2015-03-04 16:11:00,51.3,13.8,30.29,NW,326,3.0,3.0,22,0.00,,---,0.00,VWS V15.00,2015-03-05 00:11:00,
2015-03-04 16:16:00,51.2,13.7,30.29,NNW,338,1.0,1.0,22,0.00,,---,0.00,VWS V15.00,2015-03-05 00:16:00,
2015-03-04 16:21:00,51.1,13.6,30.29,NNW,337,1.0,2.0,22,0.00,,---,0.00,VWS V15.00,2015-03-05 00:21:00,
2015-03-04 16:26:00,51.0,15.5,30.29,North,355,0.0,2.0,24,0.00,,---,0.00,VWS V15.00,2015-03-05 00:26:00,
2015-03-04 16:31:00,50.8,15.3,30.29,North,355,1.0,1.0,24,0.00,,---,0.00,VWS V15.00,2015-03-05 00:31:00,
2015-03-04 16:36:00,50.6,15.2,30.29,North,355,1.0,1.0,24,0.00,,---,0.00,VWS V15.00,2015-03-05 00:36:00,
2015-03-04 16:41:00,50.4,15.0,30.29,North,355,0.0,2.0,24,0.00,,---,0.00,VWS V15.00,2015-03-05 00:41:00,
2015-03-04 16:46:00,50.2,13.9,30.29,North,355,1.0,1.0,23,0.00,,---,0.00,VWS V15.00,2015-03-05 00:46:00,
2015-03-04 16:51:00,49.9,16.4,30.29,North,355,0.0,1.0,26,0.00,,---,0.00,VWS V15.00,2015-03-05 00:51:00,
2015-03-04 16:56:00,49.7,15.3,30.29,North,355,0.0,1.0,25,0.00,,---,0.00,VWS V15.00,2015-03-05 00:56:00,
2015-03-04 17:01:00,49.4,16.0,30.29,North,355,0.0,1.0,26,0.00,,---,0.00,VWS V15.00,2015-03-05 01:01:00,
2015-03-04 17:06:00,49.1,15.7,30.29,NW,304,2.0,2.0,26,0.00,,---,0.00,VWS V15.00,2015-03-05 01:06:00,
2015-03-04 17:11:00,48.8,14.6,30.29,NNW,331,0.0,1.0,25,0.00,,---,0.00,VWS V15.00,2015-03-05 01:11:00,
2015-03-04 17:16:00,48.7,15.4,30.30,NNW,331,1.0,1.0,26,0.00,,---,0.00,VWS V15.00,2015-03-05 01:16:00,
2015-03-04 17:21:00,48.5,15.2,30.30,NNW,331,0.0,0.0,26,0.00,,---,0.00,VWS V15.00,2015-03-05 01:21:00,
2015-03-04 17:26:00,48.2,14.0,30.30,NNW,331,0.0,0.0,25,0.00,,---,0.00,VWS V15.00,2015-03-05 01:26:00,
2015-03-04 17:31:00,47.7,19.3,30.30,NNW,331,0.0,1.0,32,0.00,,---,0.00,VWS V15.00,2015-03-05 01:31:00,
2015-03-04 17:36:00,46.8,20.6,30.30,NNW,331,0.0,1.0,35,0.00,,---,0.00,VWS V15.00,2015-03-05 01:36:00,
2015-03-04 17:41:00,45.2,21.7,30.30,NNW,331,1.0,1.0,39,0.00,,---,0.00,VWS V15.00,2015-03-05 01:41:00,
2015-03-04 17:46:00,43.7,22.1,30.30,NNW,331,1.0,1.0,42,0.00,,---,0.00,VWS V15.00,2015-03-05 01:46:00,
2015-03-04 17:51:00,42.2,22.4,30.30,NNW,331,1.0,2.0,45,0.00,,---,0.00,VWS V15.00,2015-03-05 01:51:00,
2015-03-04 17:56:00,40.5,22.4,30.30,NNW,331,1.0,2.0,48,0.00,,---,0.00,VWS V15.00,2015-03-05 01:56:00,
2015-03-04 18:01:00,39.3,22.7,30.30,NNW,331,1.0,1.0,51,0.00,,---,0.00,VWS V15.00,2015-03-05 02:01:00,
2015-03-04 18:06:00,38.3,21.8,30.31,NNW,331,1.0,2.0,51,0.00,,---,0.00,VWS V15.00,2015-03-05 02:06:00,
2015-03-04 18:11:00,37.5,21.5,30.31,NNW,331,1.0,2.0,52,0.00,,---,0.00,VWS V15.00,2015-03-05 02:11:00,
2015-03-04 18:16:00,36.7,21.2,30.31,NNW,331,1.0,1.0,53,0.00,,---,0.00,VWS V15.00,2015-03-05 02:16:00,
2015-03-04 18:21:00,36.1,21.9,30.31,NNW,331,1.0,2.0,56,0.00,,---,0.00,VWS V15.00,2015-03-05 02:21:00,
2015-03-04 18:26:00,35.3,22.8,30.31,NNW,331,1.0,1.0,60,0.00,,---,0.00,VWS V15.00,2015-03-05 02:26:00,
2015-03-04 18:31:00,34.7,22.6,30.32,NNW,331,1.0,2.0,61,0.00,,---,0.00,VWS V15.00,2015-03-05 02:31:00,
2015-03-04 18:36:00,34.1,22.5,30.32,NNW,331,1.0,1.0,62,0.00,,---,0.00,VWS V15.00,2015-03-05 02:36:00,
2015-03-04 18:41:00,33.4,22.2,30.32,NNW,331,1.0,2.0,63,0.00,,---,0.00,VWS V15.00,2015-03-05 02:41:00,
2015-03-04 18:46:00,32.9,22.1,30.32,NNW,331,1.0,1.0,64,0.00,,---,0.00,VWS V15.00,2015-03-05 02:46:00,
2015-03-04 18:51:00,32.4,22.3,30.32,NNW,331,1.0,1.0,66,0.00,,---,0.00,VWS V15.00,2015-03-05 02:51:00,
2015-03-04 18:56:00,31.9,21.9,30.32,NNW,331,1.0,2.0,66,0.00,,---,0.00,VWS V15.00,2015-03-05 02:56:00,
2015-03-04 19:01:00,31.5,21.5,30.32,NNW,331,1.0,2.0,66,0.00,,---,0.00,VWS V15.00,2015-03-05 03:01:00,
2015-03-04 19:06:00,31.0,21.0,30.32,NNW,331,1.0,2.0,66,0.00,,---,0.00,VWS V15.00,2015-03-05 03:06:00,
2015-03-04 19:11:00,30.7,20.3,30.32,NNW,331,1.0,2.0,65,0.00,,---,0.00,VWS V15.00,2015-03-05 03:11:00,
2015-03-04 19:16:00,30.5,20.9,30.33,NNW,331,2.0,2.0,67,0.00,,---,0.00,VWS V15.00,2015-03-05 03:16:00,
2015-03-04 19:21:00,30.2,19.9,30.32,NNW,331,0.0,1.0,65,0.00,,---,0.00,VWS V15.00,2015-03-05 03:21:00,
2015-03-04 19:26:00,29.8,19.8,30.33,NNW,331,0.0,0.0,66,0.00,,---,0.00,VWS V15.00,2015-03-05 03:26:00,
2015-03-04 19:31:00,29.5,19.6,30.33,NNW,331,2.0,2.0,66,0.00,,---,0.00,VWS V15.00,2015-03-05 03:31:00,
2015-03-04 19:36:00,29.1,19.2,30.33,NW,323,2.0,2.0,66,0.00,,---,0.00,VWS V15.00,2015-03-05 03:36:00,
2015-03-04 19:41:00,28.8,19.2,30.33,NW,323,1.0,2.0,67,0.00,,---,0.00,VWS V15.00,2015-03-05 03:41:00,
2015-03-04 19:46:00,28.5,19.6,30.33,NW,322,1.0,1.0,69,0.00,,---,0.00,VWS V15.00,2015-03-05 03:46:00,
2015-03-04 19:51:00,28.3,19.8,30.33,NW,322,2.0,2.0,70,0.00,,---,0.00,VWS V15.00,2015-03-05 03:51:00,
2015-03-04 19:56:00,28.0,19.2,30.33,NW,322,1.0,2.0,69,0.00,,---,0.00,VWS V15.00,2015-03-05 03:56:00,
2015-03-04 20:01:00,27.7,18.9,30.33,NW,322,2.0,2.0,69,0.00,,---,0.00,VWS V15.00,2015-03-05 04:01:00,
2015-03-04 20:06:00,27.3,18.8,30.33,NW,322,2.0,2.0,70,0.00,,---,0.00,VWS V15.00,2015-03-05 04:06:00,
2015-03-04 20:11:00,27.1,18.6,30.34,WNW,289,2.0,3.0,70,0.00,,---,0.00,VWS V15.00,2015-03-05 04:11:00,
2015-03-04 20:16:00,26.9,18.4,30.33,West,265,1.0,2.0,70,0.00,,---,0.00,VWS V15.00,2015-03-05 04:16:00,
2015-03-04 20:21:00,26.7,18.2,30.34,West,265,2.0,2.0,70,0.00,,---,0.00,VWS V15.00,2015-03-05 04:21:00,
2015-03-04 20:26:00,26.6,18.1,30.33,West,265,1.0,2.0,70,0.00,,---,0.00,VWS V15.00,2015-03-05 04:26:00,